This is the latest recevied weather packets stored in our database for station/object KC9Q. If no packets are shown the sender has not sent any weather packets the latest 10 day(s).
| Time | Temp. | Humidity | Pressure | Rain* | Wind** | Luminosity | Snow |
|---|---|---|---|---|---|---|---|
| 1777848173 | 22.22° C | 32% | 1013.2 hPa | 0 mm | - | 55 W/m² | - |
| 1777847870 | 22.22° C | 34% | 1013.4 hPa | 0 mm | - | 52 W/m² | - |
| 1777847568 | 22.22° C | 32% | 1013.3 hPa | 0 mm | - | 54 W/m² | - |
| 1777847263 | 22.22° C | 33% | 1013.2 hPa | 0 mm | - | 54 W/m² | - |
| 1777846962 | 22.22° C | 32% | 1013.5 hPa | 0 mm | - | 55 W/m² | - |
| 1777846660 | 22.22° C | 33% | 1013.4 hPa | 0 mm | - | 58 W/m² | - |
| 1777846357 | 22.22° C | 32% | 1013.5 hPa | 0 mm | - | 59 W/m² | - |
| 1777846053 | 22.22° C | 33% | 1013.5 hPa | 0 mm | - | 59 W/m² | - |
| 1777845751 | 22.22° C | 34% | 1013.7 hPa | 0 mm | - | 62 W/m² | - |
| 1777845447 | 22.22° C | 34% | 1013.6 hPa | 0 mm | - | 62 W/m² | - |
| 1777845144 | 22.22° C | 33% | 1013.9 hPa | 0 mm | - | 81 W/m² | - |
| 1777844842 | 22.78° C | 31% | 1014 hPa | 0 mm | - | 120 W/m² | - |
| 1777844539 | 22.22° C | 33% | 1014 hPa | 0 mm | - | 282 W/m² | - |
| 1777844237 | 22.22° C | 33% | 1014 hPa | 0 mm | - | 485 W/m² | - |
| 1777843934 | 22.22° C | 34% | 1014.1 hPa | 0 mm | - | 504 W/m² | - |
| 1777843631 | 22.22° C | 33% | 1014.3 hPa | 0 mm | - | 520 W/m² | - |
| 1777843329 | 22.22° C | 34% | 1014.1 hPa | 0 mm | - | 544 W/m² | - |
| 1777843026 | 22.22° C | 35% | 1014.2 hPa | 0 mm | - | 562 W/m² | - |
| 1777842721 | 21.67° C | 36% | 1014.5 hPa | 0 mm | - | 580 W/m² | - |
| 1777842418 | 21.67° C | 34% | 1014.6 hPa | 0 mm | - | 596 W/m² | - |
| 1777842115 | 21.67° C | 34% | 1014.6 hPa | 0 mm | - | 614 W/m² | - |
| 1777841810 | 21.67° C | 33% | 1014.7 hPa | 0 mm | - | 630 W/m² | - |
| 1777841507 | 22.22° C | 36% | 1014.7 hPa | 0 mm | - | 653 W/m² | - |
| 1777841203 | 22.22° C | 36% | 1015.1 hPa | 0 mm | - | 669 W/m² | - |
| 1777840901 | 21.67° C | 33% | 1014.9 hPa | 0 mm | - | 687 W/m² | - |
* Rain latest hour (hover to see other rain measurements)
** Current wind speed in m/s (hover to see current wind gust speed)